Location: Gorrie
(43.8742°N, 81.1087°W)
Time: 07:40:45
(UTC+00:00)

Cosmos 1758 Rocket - Visible Passes

Search period start: 11 March 2026 00:00
Search period end: 21 March 2026 00:00
Orbit: 596 x 627 km, 82.5° (Epoch: 10 March)

Date Brightness Start Highest point End Pass type
(mag) Time Alt. Az. Time Alt. Az. Time Alt. Az.
11 Mar 5.7 00:36:53 10° SW 00:40:48 30° WNW 00:44:44 10° NNW visible
11 Mar 3.7 10:42:32 10° N 10:46:56 78° E 10:51:16 10° SSE visible
12 Mar 6.6 00:52:57 10° WSW 00:56:02 18° WNW 00:59:08 10° NNW visible
12 Mar 6.8 09:21:35 10° NE 09:23:46 14° ENE 09:25:57 10° E visible
12 Mar 3.6 10:57:37 10° NNW 11:01:56 59° W 11:06:11 10° S visible
13 Mar 7.1 01:10:06 10° W 01:11:21 11° WNW 01:12:35 10° NW visible
13 Mar 6.1 09:35:36 10° NNE 09:39:03 22° ENE 09:42:27 10° ESE visible
14 Mar 5.1 09:50:10 10° N 09:54:14 37° ENE 09:58:15 10° SE visible
14 Mar 5.6 23:59:07 10° SW 00:03:11 35° WNW 00:07:16 10° N visible
15 Mar 3.9 10:05:00 10° N 10:09:20 65° E 10:13:37 10° SSE visible
16 Mar 6.5 00:14:59 10° WSW 00:18:23 21° WNW 00:21:47 10° NNW visible
16 Mar 6.9 08:44:38 10° NE 08:46:06 11° ENE 08:47:32 10° E visible
16 Mar 3.4 10:20:01 10° NNW 10:24:21 71° W 10:28:38 10° S visible
17 Mar 6.9 00:31:38 10° W 00:33:40 13° WNW 00:35:42 10° NW visible
17 Mar 6.2 08:58:15 10° NNE 09:01:23 19° ENE 09:04:29 10° ESE visible
17 Mar 3.9 10:35:13 10° NNW 10:39:17 39° W 10:43:17 10° SSW visible
18 Mar 5.4 09:12:42 10° N 09:16:36 31° ENE 09:20:26 10° SE visible
18 Mar 4.6 10:50:43 10° NW 10:54:08 23° W 10:57:30 10° SW visible
19 Mar 4.2 09:27:26 10° N 09:31:43 54° E 09:35:55 10° SSE visible
20 Mar 3.4 09:42:23 10° N 09:46:45 84° W 09:51:02 10° S visible
